[[[{"header":{"parameterUnit":"kt","parameterCategory":2,"dx":1,"dy":1,"la1":30.253999710083008,"la2":30.299108505249023,"lo1":-89.0895004272461,"lo2":-89.04439544677734,"nx":28,"ny":28,"refTime":"2022-10-03T21:00:00:Z","depth":"0","parameterNumber":2,"parameterNumberName":"U-component_of_CURRENTS"},"data":[-0.1245,-0.1044,-0.0968,-0.0686,-0.0608,-0.0404,-0.0302,-0.0191,0.0032,0.0578,0.1013,0.13,0.1829,0.2609,0.2902,0.2784,0.2458,0.252,0.2031,0.214,0.2024,0.1914,0.2146,0.3006,0.3007,0.2299,0.2296,0.2294,-0.1336,-0.12,-0.1166,-0.1085,-0.0906,-0.0948,-0.0735,-0.0684,-0.0396,-0.0015,0.0278,0.1013,0.1498,0.1527,0.1837,0.1875,0.1498,0.1768,0.1582,0.1403,0.1213,0.1452,0.2178,0.2178,0.2177,0.2177,0.2177,0.2177,-0.14,-0.1409,-0.1372,-0.138,-0.1302,-0.1097,-0.1133,-0.0914,-0.0783,-0.059,-0.0414,-0.0066,0.0333,0.0416,0.0328,0.048,0.0032,0.0602,0.053,0.0212,0.032,0.0067,0.0416,0.041,0.0405,0.04,0.0395,0,-0.1335,-0.1421,-0.149,-0.1498,-0.1492,-0.1546,-0.1503,-0.1506,-0.1485,-0.1437,-0.1116,-0.0937,-0.0818,-0.0438,-0.0555,-0.0526,-0.0866,-0.0825,-0.0705,0.0183,0.0021,-0.007,-0.0572,-0.0299,-0.0309,-0.0317,-0.0323,-0.0327,-0.1237,-0.1307,-0.1549,-0.1547,-0.1642,-0.1813,-0.1766,-0.1959,-0.1852,-0.1908,-0.1748,-0.1787,-0.1478,-0.1515,-0.1434,-0.1393,-0.1505,-0.1082,-0.0915,-0.0697,-0.0729,-0.0988,-0.106,-0.0442,-0.0427,-0.0415,-0.0406,0,-0.1222,-0.1272,-0.1421,-0.1602,-0.1658,-0.1792,-0.1948,-0.191,-0.2084,-0.2036,-0.2064,-0.2091,-0.1978,-0.2073,-0.2085,-0.2023,-0.1825,-0.1887,-0.1419,-0.1357,-0.0852,-0.087,-0.0882,-0.0936,-0.1623,-0.1616,-0.1611,0,-0.1266,-0.131,-0.1477,-0.1527,-0.1665,-0.1706,-0.1838,-0.1905,-0.1986,-0.1948,-0.2085,-0.2028,-0.2144,-0.2147,-0.2131,-0.1991,-0.2149,-0.1852,-0.1856,-0.146,-0.1405,-0.1261,-0.1266,-0.2126,-0.2125,-0.2124,-0.2123,0,-0.1368,-0.1408,-0.1465,-0.1491,-0.1618,-0.1658,-0.1722,-0.1794,-0.1854,-0.1967,-0.2031,-0.2053,-0.212,-0.2104,-0.2092,-0.2079,-0.2119,-0.2132,-0.189,-0.1877,-0.1519,-0.1469,-0.1129,-0.2122,-0.2121,-0.2121,-0.2121,0,-0.1432,-0.1489,-0.1504,-0.1626,-0.1633,-0.1661,-0.1755,-0.1775,-0.1844,-0.1901,-0.1924,-0.1979,-0.1996,-0.1985,-0.2004,-0.1982,-0.1995,-0.2018,-0.2024,-0.1816,-0.1837,-0.1496,-0.1287,-0.1087,-0.2116,-0.2115,-0.2115,0,-0.1576,-0.1573,-0.1596,-0.1606,-0.1624,-0.1673,-0.1689,-0.1727,-0.1779,-0.1858,-0.1868,-0.1949,-0.1896,-0.1964,-0.1932,-0.2004,-0.1992,-0.1953,-0.2099,-0.2105,-0.1871,-0.1752,-0.1272,-0.1307,-0.2106,-0.2107,-0.2108,0,-0.1672,-0.1724,-0.1708,-0.1752,-0.1755,-0.1781,-0.175,-0.178,-0.1849,-0.1835,-0.1919,-0.1871,-0.1935,-0.1954,-0.1988,-0.1988,-0.1985,-0.202,-0.2024,-0.2075,-0.2051,-0.1778,-0.1759,-0.1984,-0.1984,-0.1984,-0.2101,0,-0.1849,-0.1839,-0.1804,-0.1796,-0.1809,-0.1788,-0.1843,-0.1846,-0.1916,-0.1974,-0.1976,-0.202,-0.2073,-0.2029,-0.2074,-0.2036,-0.2072,-0.2087,-0.2151,-0.2091,-0.2152,-0.2157,-0.2133,-0.2136,-0.2137,-0.2139,0,0,-0.1956,-0.1926,-0.1949,-0.1919,-0.1944,-0.2016,-0.1996,-0.2025,-0.2093,-0.212,-0.2141,-0.2194,-0.2201,-0.2195,-0.2154,-0.2159,-0.2192,-0.2154,-0.2113,-0.211,-0.2107,-0.2161,-0.2163,-0.2142,-0.2143,-0.2144,-0.2144,0,-0.2005,-0.2012,-0.1963,-0.1976,-0.2005,-0.2052,-0.2054,-0.2117,-0.2146,-0.2174,-0.2236,-0.2241,-0.2246,-0.2251,-0.2262,-0.2191,-0.2222,-0.2146,-0.2105,-0.2127,-0.2121,-0.2117,-0.2168,-0.2169,-0.2149,-0.2148,-0.2148,0,-0.2091,-0.2112,-0.2096,-0.2106,-0.2133,-0.2129,-0.2227,-0.223,-0.2245,-0.2347,-0.2358,-0.2373,-0.2404,-0.2353,-0.2334,-0.2367,-0.2293,-0.2286,-0.2277,-0.2296,-0.2324,-0.2316,-0.2309,-0.2402,-0.2403,-0.2403,0,0,-0.2127,-0.2098,-0.2151,-0.2123,-0.2125,-0.2217,-0.2244,-0.2283,-0.2337,-0.2357,-0.2392,-0.2421,-0.2419,-0.2417,-0.2401,-0.2377,-0.2429,-0.2313,-0.2302,-0.2291,-0.2304,-0.2329,-0.2321,-0.2405,-0.2405,-0.2405,0,0,-0.2148,-0.2186,-0.2218,-0.2188,-0.2211,-0.2293,-0.2284,-0.2363,-0.2403,-0.2415,-0.2477,-0.248,-0.2435,-0.2461,-0.2487,-0.2379,-0.2434,-0.243,-0.2351,-0.2337,-0.2325,-0.2339,-0.2483,0,0,0,0,0,-0.2223,-0.218,-0.2208,-0.2215,-0.2273,-0.2282,-0.2295,-0.2359,-0.2438,-0.2403,-0.2475,-0.2469,-0.2467,-0.2492,-0.2493,-0.2406,-0.2429,-0.2425,-0.2421,-0.2314,-0.2298,-0.2285,0,0,0,0,0,0,-0.2226,-0.2228,-0.2211,-0.2287,-0.2304,-0.2285,-0.237,-0.2387,-0.2437,-0.2442,-0.2469,-0.247,-0.2478,-0.2491,-0.2492,-0.2408,-0.2483,-0.2428,-0.2424,-0.2421,-0.2308,-0.2296,-0.2285,0,0,0,0,0,-0.2229,-0.2231,-0.2288,-0.2291,-0.2305,-0.239,-0.2369,-0.2384,-0.242,-0.2449,-0.2454,-0.2464,-0.2478,-0.2479,-0.2491,-0.2406,-0.2482,-0.2482,-0.2425,-0.2422,-0.242,-0.2302,0,0,0,0,0,0,-0.2231,-0.2255,-0.2295,-0.2306,-0.2285,-0.2391,-0.24,-0.238,-0.2423,-0.2432,-0.2442,-0.2445,-0.2478,-0.2479,-0.248,-0.2402,-0.2481,-0.2482,-0.2482,-0.2423,-0.2421,-0.2419,0,0,0,0,0,0,-0.2256,-0.2262,-0.23,-0.2289,-0.2298,-0.2391,-0.2398,-0.2402,-0.2419,-0.2411,-0.2417,-0.2442,-0.245,-0.2479,-0.2479,-0.2486,-0.2481,-0.2481,-0.2482,-0.2482,-0.2421,-0.242,0,0,0,0,0,0,-0.2261,-0.2267,-0.2286,-0.2293,-0.2302,-0.2422,-0.2393,-0.2428,-0.2474,-0.2405,-0.2473,-0.2473,-0.2447,-0.245,-0.2479,-0.2486,-0.2486,-0.2481,-0.2481,-0.2481,-0.2481,0,0,0,0,0,0,0,-0.2266,-0.219,-0.2237,-0.2297,-0.2305,-0.2405,-0.2407,-0.2409,-0.2474,-0.2473,-0.2473,-0.2473,-0.2479,-0.2479,-0.248,-0.2486,0,0,-0.2481,-0.2481,0,0,0,0,0,0,0,0,-0.2191,-0.219,-0.2238,-0.224,-0.2243,-0.2405,-0.2407,-0.2409,-0.2473,-0.2473,-0.2473,-0.2473,-0.2479,-0.2479,-0.248,0,0,0,0,0,0,0,0,0,0,0,0,0,0,0,-0.2238,-0.224,0,-0.2405,-0.2407,-0.2408,-0.2473,-0.2473,-0.2473,-0.2473,-0.2479,-0.2479,-0.248,0,0,0,0,0,0,0,0,0,0,0,0,0,0,0,0,0,0,0,0,0,0,0,0,0,0,0,0,0,0,0,0,0,0,0,0,0,0,0,0,0,0,0,0,0,0,0,0,0,0,0,0,0,0,0,0,0,0,0,0,0,0,0,0,0,0,0,0,0]}],[{"header":{"parameterUnit":"kt","parameterCategory":2,"dx":1,"dy":1,"la1":30.253999710083008,"la2":30.299108505249023,"lo1":-89.0895004272461,"lo2":-89.04439544677734,"nx":28,"ny":28,"refTime":"2022-10-03T21:00:00:Z","depth":"0","parameterNumber":3,"parameterNumberName":"V-component_of_CURRENTS"},"data":[0.0454,0.0695,0.0636,0.094,0.0997,0.1151,0.1192,0.1252,0.1299,0.1453,0.1507,0.1533,0.1234,0.0024,-0.0761,-0.0987,-0.1411,-0.1466,-0.1675,-0.1488,-0.1489,-0.149,-0.1445,-0.149,-0.1492,-0.2085,-0.2091,-0.2095,0.0086,0.0155,0.0317,0.0441,0.0592,0.0502,0.0668,0.0741,0.0909,0.1005,0.1094,0.1054,0.0644,0.0159,-0.0385,-0.0709,-0.0972,-0.0956,-0.1234,-0.1324,-0.09,-0.0819,-0.0732,-0.0732,-0.0732,-0.0731,-0.0731,-0.0731,-0.043,-0.0333,-0.0223,-0.0132,-0.0003,0.0139,0.0238,0.0364,0.0512,0.0586,0.058,0.0613,0.0288,-0.0036,-0.0235,-0.065,-0.076,-0.0791,-0.0943,-0.1064,-0.1089,-0.0543,-0.0455,-0.0456,-0.0456,-0.0457,-0.0457,0,-0.0781,-0.0795,-0.0753,-0.0635,-0.0528,-0.0426,-0.0318,-0.0227,-0.0262,-0.0189,-0.0024,-0.0001,-0.0134,-0.0243,-0.047,-0.0543,-0.1074,-0.0842,-0.1059,-0.1144,-0.1243,-0.129,-0.085,-0.0907,-0.091,-0.0912,-0.0914,-0.0916,-0.0991,-0.1017,-0.1077,-0.0978,-0.1004,-0.0981,-0.0864,-0.0978,-0.0836,-0.0826,-0.0669,-0.0718,-0.0597,-0.0679,-0.0805,-0.093,-0.1095,-0.0925,-0.0923,-0.1076,-0.1167,-0.1281,-0.1356,-0.0951,-0.0946,-0.0943,-0.094,0,-0.1015,-0.1126,-0.1173,-0.1278,-0.1293,-0.1283,-0.1206,-0.112,-0.123,-0.1054,-0.1062,-0.113,-0.1105,-0.1203,-0.1234,-0.1235,-0.1297,-0.1157,-0.1099,-0.1032,-0.1043,-0.1156,-0.1406,-0.1501,-0.109,-0.1085,-0.1082,0,-0.1063,-0.1126,-0.1232,-0.1275,-0.13,-0.1384,-0.1364,-0.1407,-0.139,-0.1247,-0.1435,-0.1308,-0.1431,-0.1381,-0.1394,-0.1265,-0.1378,-0.1174,-0.1118,-0.108,-0.1055,-0.1163,-0.1268,-0.138,-0.1379,-0.1378,-0.1378,0,-0.1039,-0.1131,-0.1221,-0.1246,-0.132,-0.1359,-0.1372,-0.1389,-0.1321,-0.1434,-0.1378,-0.1482,-0.1397,-0.1463,-0.1313,-0.1314,-0.13,-0.1284,-0.1106,-0.1092,-0.1016,-0.0985,-0.1325,-0.1376,-0.1376,-0.1376,-0.1375,0,-0.1036,-0.1092,-0.1183,-0.1264,-0.1269,-0.1299,-0.1334,-0.1343,-0.1352,-0.1341,-0.1362,-0.1307,-0.133,-0.1236,-0.1254,-0.1199,-0.1171,-0.1116,-0.1117,-0.0862,-0.0717,-0.0803,-0.0915,-0.109,-0.1079,-0.1077,-0.1075,0,-0.103,-0.1097,-0.1104,-0.1168,-0.1195,-0.1168,-0.1202,-0.1191,-0.117,-0.1181,-0.1139,-0.1118,-0.1041,-0.1007,-0.1039,-0.0935,-0.1005,-0.0923,-0.0895,-0.0896,-0.0726,-0.0841,-0.0793,-0.0887,-0.1045,-0.1048,-0.105,0,-0.0989,-0.1035,-0.1033,-0.1065,-0.1045,-0.1028,-0.1063,-0.1053,-0.1067,-0.1022,-0.1059,-0.0992,-0.0945,-0.09,-0.0811,-0.0829,-0.0949,-0.0734,-0.0731,-0.082,-0.1039,-0.0825,-0.0825,-0.089,-0.0893,-0.0896,-0.1026,0,-0.1002,-0.1016,-0.1018,-0.0999,-0.0986,-0.0978,-0.093,-0.0914,-0.087,-0.0831,-0.0827,-0.0735,-0.0685,-0.0648,-0.057,-0.0638,-0.06,-0.0522,-0.0474,-0.0572,-0.0607,-0.0627,-0.034,-0.0337,-0.0334,-0.0331,0,0,-0.0966,-0.0963,-0.0889,-0.0894,-0.0887,-0.0786,-0.0801,-0.0759,-0.0671,-0.0669,-0.0615,-0.0525,-0.0445,-0.0452,-0.046,-0.0399,-0.0403,-0.0391,-0.0496,-0.0515,-0.0532,-0.0574,-0.0596,-0.0326,-0.0325,-0.0324,-0.0323,0,-0.094,-0.09,-0.0897,-0.0867,-0.0802,-0.0748,-0.0746,-0.0651,-0.0618,-0.0594,-0.0504,-0.0471,-0.0375,-0.0335,-0.0297,-0.0356,-0.0305,-0.031,-0.0438,-0.0469,-0.0492,-0.0512,-0.0558,-0.058,-0.0315,-0.0316,-0.0316,0,-0.0898,-0.0855,-0.084,-0.0774,-0.0715,-0.0701,-0.0603,-0.0556,-0.0555,-0.0421,-0.0406,-0.0331,-0.0235,-0.0218,-0.0202,-0.0164,-0.0227,-0.0161,-0.0173,-0.0203,-0.0231,-0.0256,-0.0278,0.0001,0.0001,0.0001,0,0,-0.0877,-0.0857,-0.0772,-0.0759,-0.0733,-0.0633,-0.0595,-0.0534,-0.0458,-0.0422,-0.0354,-0.0277,-0.0228,-0.0198,-0.0138,-0.0127,-0.0119,-0.0131,-0.0146,-0.0159,-0.0195,-0.0226,-0.025,0.0002,0.0002,0.0002,0,0,-0.0853,-0.0767,-0.0738,-0.0716,-0.0656,-0.054,-0.0518,-0.0461,-0.0389,-0.0377,-0.0278,-0.0256,-0.0235,-0.0162,-0.0166,-0.0126,-0.0051,-0.0049,-0.0204,-0.0221,-0.0235,-0.0299,-0.0077,0,0,0,0,0,-0.0781,-0.0786,-0.0761,-0.0747,-0.0631,-0.0565,-0.0545,-0.0447,-0.0407,-0.0394,-0.0321,-0.0262,-0.0136,-0.0138,-0.0121,-0.0158,0.0009,0.0007,0.0006,-0.0188,-0.0207,-0.0223,0,0,0,0,0,0,-0.0775,-0.0759,-0.076,-0.0653,-0.0626,-0.0564,-0.0484,-0.0457,-0.0406,-0.0393,-0.0278,-0.0259,-0.0187,-0.0141,-0.0127,-0.0164,-0.0081,0.0008,0.0007,0.0006,-0.0195,-0.021,-0.0223,0,0,0,0,0,-0.077,-0.0757,-0.0605,-0.065,-0.0627,-0.0503,-0.0483,-0.0459,-0.0409,-0.0306,-0.0283,-0.034,-0.019,-0.0172,-0.0132,-0.0173,-0.009,-0.0086,0.0008,0.0007,0.0006,-0.0202,0,0,0,0,0,0,-0.0766,-0.0718,-0.0596,-0.0584,-0.0643,-0.0503,-0.048,-0.0462,-0.0323,-0.0301,-0.0365,-0.0357,-0.0192,-0.0178,-0.0165,-0.0182,-0.0098,-0.0093,-0.009,0.0007,0.0006,0.0006,0,0,0,0,0,0,-0.0724,-0.0709,-0.059,-0.0586,-0.0572,-0.0503,-0.0484,-0.0439,-0.0324,-0.0389,-0.0378,-0.0364,-0.0225,-0.0182,-0.0171,-0.0104,-0.0103,-0.0099,-0.0095,-0.0093,0.0006,0.0006,0,0,0,0,0,0,-0.0715,-0.0701,-0.0588,-0.0578,-0.0565,-0.0416,-0.0461,-0.0353,-0.0306,-0.0397,-0.0302,-0.03,-0.0232,-0.0218,-0.0176,-0.0114,-0.0106,-0.0103,-0.01,-0.0098,-0.0096,0,0,0,0,0,0,0,-0.0708,-0.0832,-0.0676,-0.0571,-0.056,-0.0473,-0.0469,-0.0465,-0.0306,-0.0304,-0.0302,-0.0301,-0.013,-0.0125,-0.012,-0.0122,0,0,-0.0104,-0.0101,0,0,0,0,0,0,0,0,-0.0835,-0.0833,-0.0675,-0.0673,-0.0671,-0.0472,-0.0469,-0.0466,-0.0306,-0.0304,-0.0303,-0.0301,-0.0129,-0.0125,-0.0121,0,0,0,0,0,0,0,0,0,0,0,0,0,0,0,-0.0675,-0.0673,0,-0.0472,-0.0469,-0.0467,-0.0305,-0.0304,-0.0303,-0.0302,-0.0128,-0.0124,-0.0121,0,0,0,0,0,0,0,0,0,0,0,0,0,0,0,0,0,0,0,0,0,0,0,0,0,0,0,0,0,0,0,0,0,0,0,0,0,0,0,0,0,0,0,0,0,0,0,0,0,0,0,0,0,0,0,0,0,0,0,0,0,0,0,0,0,0,0,0,0]}]],[[{"header":{"parameterUnit":"kt","parameterCategory":2,"dx":1,"dy":1,"la1":30.253999710083008,"la2":30.299108505249023,"lo1":-89.0895004272461,"lo2":-89.04439544677734,"nx":28,"ny":28,"refTime":"2022-10-03T21:00:00:Z","depth":"2","parameterNumber":2,"parameterNumberName":"U-component_of_CURRENTS"},"data":[-0.0303,-0.0205,-0.0198,0.0001,0.0054,0.0188,0.0248,0.0331,0.0451,0.0665,0.0803,0.0982,0.1033,0.1,0.0945,0.0908,0.0619,0.0818,0.0602,0.041,0.0373,0.0193,0.0275,0,0,0,0,0,-0.0419,-0.0375,-0.0325,-0.0274,-0.0178,-0.0223,-0.013,-0.0108,0.0077,0.0305,0.0535,0.0684,0.0906,0.0819,0.0872,0.0884,0.0775,0.0598,0.0455,0.0416,0.038,0.0455,0.0776,0.0776,0.0776,0.0776,0,0,-0.0573,-0.0548,-0.053,-0.0506,-0.0467,-0.038,-0.0401,-0.0333,-0.028,-0.0112,0.0043,0.0302,0.0356,0.0592,0.0602,0.0424,0.0426,0.0205,0.0182,0.0156,0.023,0.0281,0.0486,0.0485,0.0483,0.0482,0.0481,0,-0.0671,-0.07,-0.0698,-0.0678,-0.0661,-0.0696,-0.0666,-0.0722,-0.0708,-0.0708,-0.0424,-0.025,-0.0062,0.0202,0.0161,0.0212,-0.0268,-0.0154,-0.05,-0.0174,-0.0136,-0.0152,-0.0176,-0.002,-0.0024,-0.0028,-0.003,-0.0032,-0.0755,-0.0759,-0.081,-0.0783,-0.0791,-0.0864,-0.0845,-0.0983,-0.0937,-0.0953,-0.0813,-0.0862,-0.059,-0.0546,-0.0395,-0.0259,-0.0527,-0.0277,-0.0182,-0.0446,-0.0459,-0.0471,-0.0481,-0.0081,-0.0074,-0.0069,-0.0065,0,-0.079,-0.0806,-0.0813,-0.0851,-0.086,-0.0865,-0.0973,-0.097,-0.1078,-0.1004,-0.1022,-0.1036,-0.0924,-0.0975,-0.0911,-0.0827,-0.0718,-0.0664,-0.0563,-0.0542,-0.0514,-0.0517,-0.0396,-0.0389,-0.0383,-0.0378,-0.0374,0,-0.0826,-0.082,-0.0848,-0.0857,-0.0868,-0.0855,-0.0908,-0.0874,-0.0922,-0.0872,-0.0948,-0.0905,-0.096,-0.0958,-0.0894,-0.078,-0.0887,-0.066,-0.0658,-0.0584,-0.0562,-0.0883,-0.0887,-0.0848,-0.0848,-0.0848,-0.0848,0,-0.0854,-0.0837,-0.0829,-0.0828,-0.0838,-0.0828,-0.0829,-0.0826,-0.0864,-0.0856,-0.0926,-0.087,-0.0936,-0.0877,-0.0898,-0.089,-0.0887,-0.0884,-0.0704,-0.0693,-0.0603,-0.0583,-0.0848,-0.0848,-0.0848,-0.0848,-0.0848,0,-0.0856,-0.0861,-0.084,-0.0837,-0.0841,-0.084,-0.0846,-0.083,-0.082,-0.0845,-0.0827,-0.0853,-0.0842,-0.0861,-0.0849,-0.0863,-0.0863,-0.0874,-0.0875,-0.0711,-0.0736,-0.0654,-0.0523,-0.0899,-0.0899,-0.09,-0.09,0,-0.0896,-0.088,-0.0857,-0.0842,-0.0848,-0.0856,-0.0837,-0.0844,-0.0856,-0.0855,-0.0843,-0.0866,-0.0859,-0.0896,-0.087,-0.0903,-0.0883,-0.0892,-0.0925,-0.0925,-0.0796,-0.0687,-0.0577,-0.0541,-0.0904,-0.0904,-0.0904,0,-0.0924,-0.0905,-0.09,-0.0917,-0.0921,-0.0926,-0.0891,-0.0896,-0.0912,-0.0902,-0.0884,-0.086,-0.0892,-0.0886,-0.0904,-0.0904,-0.0892,-0.0936,-0.0937,-0.0962,-0.0899,-0.0718,-0.0698,-0.0918,-0.0918,-0.0917,-0.0907,0,-0.0954,-0.0951,-0.0927,-0.0947,-0.0945,-0.094,-0.0966,-0.0968,-0.0985,-0.1001,-0.0974,-0.0967,-0.0955,-0.0961,-0.0958,-0.0944,-0.096,-0.098,-0.1034,-0.0977,-0.0977,-0.0974,-0.1018,-0.1019,-0.1019,-0.102,0,0,-0.1008,-0.0997,-0.1016,-0.1009,-0.1009,-0.1066,-0.1057,-0.1067,-0.1065,-0.1055,-0.104,-0.1031,-0.1044,-0.1013,-0.0962,-0.0988,-0.0998,-0.1046,-0.099,-0.0987,-0.0984,-0.0982,-0.0979,-0.1021,-0.1021,-0.1021,-0.1021,0,-0.1012,-0.1043,-0.1025,-0.1038,-0.1067,-0.1084,-0.1084,-0.1102,-0.1082,-0.1084,-0.1053,-0.1029,-0.1069,-0.1033,-0.1032,-0.0997,-0.1074,-0.1017,-0.0992,-0.0996,-0.0991,-0.0988,-0.0985,-0.0982,-0.1023,-0.1023,-0.1023,0,-0.1073,-0.108,-0.1075,-0.1099,-0.1113,-0.1114,-0.1121,-0.1112,-0.11,-0.1115,-0.108,-0.108,-0.1077,-0.1064,-0.1065,-0.1088,-0.1126,-0.1138,-0.1133,-0.1132,-0.1138,-0.1132,-0.1126,-0.1205,-0.1206,-0.1207,0,0,-0.1093,-0.1079,-0.1115,-0.1105,-0.1115,-0.1143,-0.1146,-0.1132,-0.1106,-0.1087,-0.1095,-0.1088,-0.108,-0.1086,-0.1089,-0.1144,-0.1156,-0.1162,-0.1154,-0.1147,-0.1142,-0.1145,-0.1138,-0.121,-0.121,-0.121,0,0,-0.107,-0.1082,-0.1124,-0.1111,-0.1126,-0.1123,-0.1105,-0.1121,-0.1091,-0.1074,-0.1086,-0.1082,-0.1063,-0.1096,-0.1125,-0.113,-0.1158,-0.1156,-0.1135,-0.1126,-0.1117,-0.1101,-0.1174,0,0,0,0,0,-0.1115,-0.1096,-0.1138,-0.1141,-0.1164,-0.1152,-0.1155,-0.1105,-0.1103,-0.1078,-0.1039,-0.1097,-0.1055,-0.1081,-0.111,-0.1139,-0.125,-0.1243,-0.1236,-0.122,-0.1208,-0.1198,0,0,0,0,0,0,-0.1116,-0.112,-0.1137,-0.1141,-0.1146,-0.1152,-0.1111,-0.1101,-0.1096,-0.1079,-0.11,-0.11,-0.1097,-0.1076,-0.1099,-0.1125,-0.1166,-0.1247,-0.1241,-0.1236,-0.1216,-0.1206,-0.1198,0,0,0,0,0,-0.1117,-0.112,-0.1153,-0.1141,-0.1146,-0.1102,-0.1105,-0.1095,-0.1084,-0.1105,-0.1099,-0.1034,-0.1101,-0.1116,-0.1091,-0.1112,-0.1151,-0.1159,-0.1243,-0.1238,-0.1234,-0.1211,0,0,0,0,0,0,-0.1118,-0.113,-0.1154,-0.1156,-0.1079,-0.1096,-0.1091,-0.1091,-0.1109,-0.1104,-0.1042,-0.1029,-0.1106,-0.1117,-0.1129,-0.1101,-0.1138,-0.1146,-0.1152,-0.1239,-0.1236,-0.1232,0,0,0,0,0,0,-0.1128,-0.1132,-0.1155,-0.108,-0.1073,-0.1091,-0.1086,-0.1194,-0.1111,-0.1045,-0.1034,-0.1036,-0.109,-0.1118,-0.1127,-0.13,-0.1128,-0.1136,-0.1142,-0.1146,-0.1236,-0.1234,0,0,0,0,0,0,-0.113,-0.1133,-0.1079,-0.1074,-0.1067,-0.1088,-0.1189,-0.1216,-0.1034,-0.1047,-0.1017,-0.1009,-0.1094,-0.1101,-0.1127,-0.1296,-0.1299,-0.1128,-0.1134,-0.1138,-0.1141,0,0,0,0,0,0,0,-0.1131,-0.1107,-0.1138,-0.1069,-0.1063,-0.1174,-0.1175,-0.1176,-0.1032,-0.1025,-0.1019,-0.1012,-0.1082,-0.1091,-0.11,-0.1293,0,0,-0.1128,-0.1132,0,0,0,0,0,0,0,0,-0.1106,-0.1107,-0.1139,-0.1139,-0.1139,-0.1174,-0.1175,-0.1176,-0.1031,-0.1026,-0.102,-0.1015,-0.1084,-0.1091,-0.1099,0,0,0,0,0,0,0,0,0,0,0,0,0,0,0,-0.1139,-0.1139,0,-0.1174,-0.1175,-0.1176,-0.103,-0.1026,-0.1021,-0.1017,-0.1086,-0.1092,-0.1098,0,0,0,0,0,0,0,0,0,0,0,0,0,0,0,0,0,0,0,0,0,0,0,0,0,0,0,0,0,0,0,0,0,0,0,0,0,0,0,0,0,0,0,0,0,0,0,0,0,0,0,0,0,0,0,0,0,0,0,0,0,0,0,0,0,0,0,0,0]}],[{"header":{"parameterUnit":"kt","parameterCategory":2,"dx":1,"dy":1,"la1":30.253999710083008,"la2":30.299108505249023,"lo1":-89.0895004272461,"lo2":-89.04439544677734,"nx":28,"ny":28,"refTime":"2022-10-03T21:00:00:Z","depth":"2","parameterNumber":3,"parameterNumberName":"V-component_of_CURRENTS"},"data":[-0.1233,-0.1252,-0.1187,-0.1113,-0.1055,-0.0919,-0.082,-0.0648,-0.0476,-0.0241,-0.0082,-0.0025,-0.0075,-0.0141,-0.0272,-0.0314,-0.0344,-0.0347,-0.0212,-0.0345,-0.0342,-0.0421,-0.0495,0,0,0,0,0,-0.1101,-0.1101,-0.1134,-0.1094,-0.1024,-0.0973,-0.0863,-0.0754,-0.0576,-0.0392,-0.0234,-0.0175,-0.0176,-0.0147,-0.02,-0.0253,-0.0331,-0.0285,-0.0404,-0.0403,-0.0402,-0.0449,-0.0411,-0.0411,-0.041,-0.041,0,0,-0.0936,-0.0963,-0.1009,-0.0985,-0.0974,-0.0896,-0.0848,-0.0771,-0.065,-0.0426,-0.0361,-0.0192,-0.0212,-0.0116,-0.0138,-0.0164,-0.0177,-0.0259,-0.0264,-0.0267,-0.0303,-0.0268,-0.0228,-0.0227,-0.0226,-0.0225,-0.0224,0,-0.0773,-0.0783,-0.0842,-0.0832,-0.0851,-0.0828,-0.0798,-0.076,-0.0631,-0.0547,-0.0388,-0.0315,-0.0198,-0.0188,-0.0116,-0.0138,-0.0238,-0.0205,-0.0125,-0.0456,-0.0423,-0.0389,-0.0386,-0.0411,-0.0411,-0.0411,-0.0411,-0.041,-0.0655,-0.0678,-0.0703,-0.0727,-0.0745,-0.0744,-0.0744,-0.0678,-0.0649,-0.0484,-0.0441,-0.0346,-0.0301,-0.0187,-0.0184,-0.0155,-0.0166,-0.0203,-0.0324,-0.0239,-0.0202,-0.0203,-0.0205,-0.0408,-0.0409,-0.0409,-0.0409,0,-0.0625,-0.0622,-0.0656,-0.0669,-0.0665,-0.0674,-0.0639,-0.0639,-0.0593,-0.0526,-0.0525,-0.0468,-0.0416,-0.0388,-0.0345,-0.0345,-0.03,-0.0258,-0.0316,-0.0289,-0.0219,-0.0217,-0.0202,-0.0199,-0.0197,-0.0195,-0.0194,0,-0.0591,-0.0606,-0.0615,-0.063,-0.0648,-0.0615,-0.0622,-0.0616,-0.0568,-0.0527,-0.0555,-0.0518,-0.0547,-0.0483,-0.0471,-0.0399,-0.0433,-0.0386,-0.0347,-0.0438,-0.0435,-0.0403,-0.0395,-0.0478,-0.0479,-0.048,-0.0481,0,-0.0563,-0.0573,-0.0595,-0.0599,-0.0592,-0.06,-0.0585,-0.0569,-0.0543,-0.0546,-0.0528,-0.0566,-0.0531,-0.0558,-0.0484,-0.0517,-0.0428,-0.0459,-0.0365,-0.0355,-0.0412,-0.0405,-0.0482,-0.0482,-0.0482,-0.0483,-0.0483,0,-0.0539,-0.055,-0.0569,-0.0569,-0.0566,-0.0573,-0.0566,-0.0546,-0.0523,-0.0521,-0.0538,-0.0513,-0.0526,-0.0524,-0.0521,-0.0525,-0.0488,-0.0448,-0.0443,-0.036,-0.0284,-0.03,-0.0351,-0.0323,-0.0323,-0.0323,-0.0322,0,-0.0526,-0.0541,-0.053,-0.0541,-0.0546,-0.0529,-0.0525,-0.0516,-0.0504,-0.0481,-0.0473,-0.0454,-0.0467,-0.045,-0.048,-0.0411,-0.0425,-0.0433,-0.0346,-0.0342,-0.0293,-0.0336,-0.0434,-0.0346,-0.0319,-0.0319,-0.032,0,-0.0507,-0.0506,-0.0507,-0.0515,-0.0507,-0.0492,-0.0492,-0.0485,-0.0485,-0.0472,-0.046,-0.0439,-0.0435,-0.0405,-0.0366,-0.0382,-0.0407,-0.0342,-0.0341,-0.0306,-0.0401,-0.0334,-0.0329,-0.0421,-0.0423,-0.0424,-0.0317,0,-0.05,-0.0505,-0.0499,-0.0498,-0.0485,-0.0483,-0.0461,-0.0452,-0.0437,-0.0425,-0.0409,-0.0375,-0.0342,-0.0303,-0.0277,-0.0292,-0.0242,-0.0238,-0.0217,-0.0265,-0.0202,-0.0204,-0.0148,-0.0146,-0.0145,-0.0143,0,0,-0.0498,-0.0496,-0.047,-0.0469,-0.0465,-0.044,-0.044,-0.0425,-0.0394,-0.0391,-0.0377,-0.0307,-0.0253,-0.0236,-0.0246,-0.0202,-0.0181,-0.0173,-0.0228,-0.0237,-0.0246,-0.0191,-0.0195,-0.0141,-0.014,-0.014,-0.014,0,-0.0489,-0.0481,-0.0477,-0.0467,-0.0448,-0.0431,-0.0429,-0.0394,-0.0386,-0.0371,-0.034,-0.0322,-0.0228,-0.0208,-0.0177,-0.0188,-0.0112,-0.0133,-0.0196,-0.0215,-0.0226,-0.0236,-0.0184,-0.0189,-0.0136,-0.0136,-0.0137,0,-0.0489,-0.0476,-0.047,-0.0447,-0.0428,-0.0419,-0.0395,-0.0376,-0.0375,-0.0327,-0.0311,-0.027,-0.0207,-0.0172,-0.0146,-0.013,-0.0076,-0.0064,-0.0069,-0.0086,-0.0104,-0.0117,-0.0128,0.0011,0.0011,0.0011,0,0,-0.0487,-0.048,-0.0451,-0.0442,-0.0432,-0.0402,-0.0387,-0.0377,-0.0353,-0.0346,-0.0301,-0.0254,-0.021,-0.0183,-0.0131,-0.0088,-0.0069,-0.005,-0.0057,-0.0063,-0.0082,-0.0102,-0.0114,0.0011,0.0011,0.0011,0,0,-0.0479,-0.045,-0.0452,-0.0437,-0.0418,-0.0375,-0.0365,-0.0352,-0.0336,-0.0339,-0.0281,-0.0267,-0.0229,-0.0179,-0.0187,-0.0097,-0.0064,-0.0061,-0.0138,-0.0146,-0.0152,-0.0193,-0.0109,0,0,0,0,0,-0.046,-0.0454,-0.0456,-0.045,-0.0409,-0.0377,-0.037,-0.035,-0.0346,-0.0344,-0.0329,-0.0263,-0.0182,-0.0189,-0.0167,-0.0136,0.0016,0.0015,0.0014,-0.0074,-0.0083,-0.009,0,0,0,0,0,0,-0.0458,-0.0451,-0.0455,-0.0414,-0.0404,-0.0377,-0.0367,-0.0361,-0.0346,-0.0346,-0.0274,-0.026,-0.0219,-0.0193,-0.0174,-0.0146,-0.0115,0.0015,0.0015,0.0014,-0.0077,-0.0084,-0.009,0,0,0,0,0,-0.0455,-0.045,-0.0395,-0.0413,-0.0404,-0.0374,-0.0367,-0.0363,-0.0353,-0.0282,-0.027,-0.0341,-0.0219,-0.0201,-0.0181,-0.0156,-0.0127,-0.012,0.0015,0.0014,0.0014,-0.0081,0,0,0,0,0,0,-0.0454,-0.0441,-0.0392,-0.0388,-0.0421,-0.0376,-0.037,-0.0364,-0.0288,-0.0278,-0.0345,-0.0345,-0.0219,-0.0205,-0.0191,-0.0164,-0.0136,-0.013,-0.0126,0.0015,0.0014,0.0014,0,0,0,0,0,0,-0.0443,-0.0438,-0.039,-0.0402,-0.0399,-0.0377,-0.0372,-0.0304,-0.0286,-0.0354,-0.0353,-0.0345,-0.0223,-0.0208,-0.0197,-0.0092,-0.0144,-0.0137,-0.0133,-0.013,0.0014,0.0014,0,0,0,0,0,0,-0.044,-0.0435,-0.0403,-0.0401,-0.0398,-0.0349,-0.0313,-0.0263,-0.0331,-0.0356,-0.0333,-0.0334,-0.0225,-0.0214,-0.0201,-0.0101,-0.0094,-0.0143,-0.0139,-0.0136,-0.0134,0,0,0,0,0,0,0,-0.0438,-0.0481,-0.0417,-0.0399,-0.0397,-0.0349,-0.0348,-0.0347,-0.0331,-0.0332,-0.0333,-0.0333,-0.0179,-0.0172,-0.0165,-0.0108,0,0,-0.0144,-0.0141,0,0,0,0,0,0,0,0,-0.0482,-0.0481,-0.0417,-0.0416,-0.0415,-0.0349,-0.0348,-0.0347,-0.0331,-0.0332,-0.0332,-0.0333,-0.0177,-0.0172,-0.0166,0,0,0,0,0,0,0,0,0,0,0,0,0,0,0,-0.0417,-0.0416,0,-0.0349,-0.0348,-0.0347,-0.0331,-0.0332,-0.0332,-0.0333,-0.0176,-0.0171,-0.0166,0,0,0,0,0,0,0,0,0,0,0,0,0,0,0,0,0,0,0,0,0,0,0,0,0,0,0,0,0,0,0,0,0,0,0,0,0,0,0,0,0,0,0,0,0,0,0,0,0,0,0,0,0,0,0,0,0,0,0,0,0,0,0,0,0,0,0,0,0]}]],[[{"header":{"parameterUnit":"kt","parameterCategory":2,"dx":1,"dy":1,"la1":30.253999710083008,"la2":30.299108505249023,"lo1":-89.0895004272461,"lo2":-89.04439544677734,"nx":28,"ny":28,"refTime":"2022-10-03T21:00:00:Z","depth":"4","parameterNumber":2,"parameterNumberName":"U-component_of_CURRENTS"},"data":[-0.0193,-0.0146,-0.0158,-0.0055,-0.0002,0.0019,0.0027,0.0028,0.0061,0.008,0.0141,0.0153,0.0255,0.0236,0.0355,0.0367,0.04,0.0445,0.0446,0.0504,0.0506,0.0508,0.0476,0,0,0,0,0,-0.0275,-0.0247,-0.0177,-0.0131,-0.0084,-0.0081,-0.0052,-0.0049,-0.005,0.0042,0.0044,0.0145,0.0249,0.029,0.0347,0.0341,0.0434,0.0404,0.0451,0.0505,0.0508,0.0476,0,0,0,0,0,0,-0.0364,-0.0345,-0.0296,-0.0241,-0.0185,-0.0146,-0.0143,-0.0061,-0.0047,0.0019,0.0056,0.0154,0.0208,0.0291,0.0345,0.0397,0.0438,0.0454,0.0459,0.0462,0.0429,0.0309,0.0399,0,0,0,0,0,-0.0444,-0.0443,-0.0393,-0.034,-0.0282,-0.0239,-0.0176,-0.0156,-0.0101,-0.0085,0.0025,0.0102,0.02,0.0306,0.0347,0.0426,0.0461,0.0469,0.0473,0.0509,0.0423,0.0405,0.0393,0.0517,0.0517,0.0517,0.0518,0,-0.0502,-0.0486,-0.0443,-0.0389,-0.0352,-0.0308,-0.0252,-0.0224,-0.016,-0.008,-0.0023,0.0063,0.0136,0.0278,0.0354,0.0452,0.0464,0.0475,0.0513,0.0425,0.041,0.0396,0.0383,0.0519,0.0519,0.0519,0.0519,0,-0.052,-0.049,-0.0449,-0.0389,-0.0373,-0.0343,-0.0274,-0.0211,-0.0167,-0.0074,-0.0044,0.0054,0.0151,0.0217,0.0366,0.0383,0.0474,0.0485,0.0394,0.0382,0.0395,0.0381,0.0523,0.0522,0.0521,0.0521,0.052,0,-0.0505,-0.0482,-0.0424,-0.0408,-0.0365,-0.0318,-0.0259,-0.0208,-0.0125,-0.0062,0.0004,0.0068,0.0178,0.0243,0.0296,0.0363,0.0417,0.0425,0.0424,0.0401,0.0386,0.0422,0.0408,0.0535,0.0535,0.0535,0.0535,0,-0.0507,-0.0451,-0.0412,-0.0396,-0.0333,-0.0299,-0.0266,-0.0189,-0.0156,-0.0048,-0.0013,0.0095,0.0131,0.0234,0.0258,0.0254,0.039,0.0399,0.0393,0.0385,0.0415,0.0402,0.0534,0.0534,0.0534,0.0534,0.0534,0,-0.0482,-0.0455,-0.0408,-0.0355,-0.0343,-0.0314,-0.0246,-0.0212,-0.0125,-0.0094,-0.0017,0.0011,0.0098,0.0084,0.0209,0.0161,0.0202,0.0241,0.0244,0.0224,0.0169,0.0133,0.0217,0.0214,0.0212,0.021,0.0209,0,-0.0491,-0.0449,-0.042,-0.038,-0.036,-0.0327,-0.0292,-0.0247,-0.0211,-0.0151,-0.01,-0.005,-0.0073,-0.0051,0.0022,0.0072,0.0135,0.0068,0.0182,0.0185,0.0133,0.0211,0.0143,0.018,0.0183,0.0186,0.0188,0,-0.0506,-0.0453,-0.0453,-0.0433,-0.0395,-0.0374,-0.0336,-0.0285,-0.025,-0.0225,-0.0155,-0.0119,-0.0102,-0.0077,-0.0068,0.0005,0.0083,-0.0005,-0.0001,-0.0004,0.0227,0.0177,0.0188,0.0123,0.0127,0.013,0.0168,0,-0.0481,-0.0472,-0.0462,-0.043,-0.0407,-0.0386,-0.0358,-0.0341,-0.0331,-0.0298,-0.0244,-0.0214,-0.0158,-0.0164,-0.0159,-0.007,-0.0099,-0.0079,-0.008,-0.0026,-0.0026,-0.001,-0.0197,-0.0197,-0.0197,-0.0197,0,0,-0.0505,-0.0488,-0.0477,-0.0456,-0.0432,-0.0417,-0.0389,-0.0373,-0.0331,-0.0304,-0.0322,-0.0244,-0.024,-0.017,-0.0161,-0.017,-0.0147,-0.0187,-0.0069,-0.0055,-0.0042,-0.0037,-0.0022,-0.0197,-0.0197,-0.0197,-0.0197,0,-0.0491,-0.0503,-0.0488,-0.0468,-0.0435,-0.041,-0.0407,-0.0367,-0.0353,-0.0326,-0.0303,-0.0269,-0.0265,-0.0222,-0.0205,-0.0176,-0.0179,-0.0199,-0.0164,-0.0073,-0.0059,-0.0047,-0.004,-0.0026,-0.0197,-0.0197,-0.0197,0,-0.0495,-0.0478,-0.0473,-0.045,-0.0425,-0.0398,-0.0384,-0.036,-0.0336,-0.0323,-0.0299,-0.0286,-0.0261,-0.0241,-0.0237,-0.0242,-0.0191,-0.0237,-0.0236,-0.0209,-0.0113,-0.0098,-0.0085,-0.0255,-0.0255,-0.0255,0,0,-0.0486,-0.0479,-0.0445,-0.0444,-0.0434,-0.0394,-0.0376,-0.0356,-0.0324,-0.0315,-0.0305,-0.0287,-0.0266,-0.0264,-0.0251,-0.0244,-0.0209,-0.0245,-0.0243,-0.0241,-0.0213,-0.0118,-0.0104,-0.0257,-0.0257,-0.0257,0,0,-0.0471,-0.0437,-0.0434,-0.0437,-0.0404,-0.0352,-0.0343,-0.0325,-0.0302,-0.0305,-0.0291,-0.0289,-0.0278,-0.0275,-0.029,-0.0265,-0.0273,-0.0271,-0.0277,-0.0274,-0.0271,-0.0241,-0.0306,0,0,0,0,0,-0.043,-0.0441,-0.0439,-0.0435,-0.0399,-0.0359,-0.0351,-0.0319,-0.0315,-0.0311,-0.0287,-0.0305,-0.0267,-0.028,-0.0283,-0.0288,-0.0274,-0.0271,-0.0268,-0.0274,-0.0271,-0.0268,0,0,0,0,0,0,-0.0428,-0.0425,-0.0437,-0.039,-0.0381,-0.0359,-0.0341,-0.0332,-0.0315,-0.0312,-0.0304,-0.0305,-0.0297,-0.0281,-0.0283,-0.0288,-0.0305,-0.0273,-0.027,-0.0268,-0.0273,-0.027,-0.0268,0,0,0,0,0,-0.0426,-0.0423,-0.0382,-0.0389,-0.0381,-0.0336,-0.0341,-0.0334,-0.0323,-0.0306,-0.0305,-0.0301,-0.0297,-0.0298,-0.0282,-0.0287,-0.0304,-0.0305,-0.0271,-0.0269,-0.0267,-0.0272,0,0,0,0,0,0,-0.0425,-0.0413,-0.0379,-0.0374,-0.039,-0.0337,-0.0331,-0.0335,-0.0319,-0.0316,-0.0303,-0.0302,-0.0297,-0.0298,-0.0299,-0.0286,-0.0303,-0.0304,-0.0304,-0.0269,-0.0268,-0.0266,0,0,0,0,0,0,-0.0414,-0.041,-0.0377,-0.0381,-0.0376,-0.0337,-0.0332,-0.0338,-0.0322,-0.0319,-0.0315,-0.0303,-0.0311,-0.0297,-0.0298,-0.0307,-0.0303,-0.0303,-0.0304,-0.0304,-0.0268,-0.0267,0,0,0,0,0,0,-0.0411,-0.0407,-0.0382,-0.0378,-0.0374,-0.0315,-0.0343,-0.0321,-0.0287,-0.0322,-0.0287,-0.0287,-0.0313,-0.0312,-0.0298,-0.0307,-0.0307,-0.0303,-0.0303,-0.0303,-0.0304,0,0,0,0,0,0,0,-0.0408,-0.045,-0.0407,-0.0376,-0.0372,-0.0325,-0.0324,-0.0323,-0.0287,-0.0287,-0.0287,-0.0287,-0.03,-0.03,-0.0301,-0.0306,0,0,-0.0303,-0.0303,0,0,0,0,0,0,0,0,-0.045,-0.045,-0.0407,-0.0406,-0.0405,-0.0325,-0.0324,-0.0323,-0.0287,-0.0287,-0.0287,-0.0287,-0.03,-0.03,-0.0301,0,0,0,0,0,0,0,0,0,0,0,0,0,0,0,-0.0407,-0.0406,0,-0.0325,-0.0324,-0.0323,-0.0287,-0.0287,-0.0287,-0.0287,-0.03,-0.03,-0.0301,0,0,0,0,0,0,0,0,0,0,0,0,0,0,0,0,0,0,0,0,0,0,0,0,0,0,0,0,0,0,0,0,0,0,0,0,0,0,0,0,0,0,0,0,0,0,0,0,0,0,0,0,0,0,0,0,0,0,0,0,0,0,0,0,0,0,0,0,0]}],[{"header":{"parameterUnit":"kt","parameterCategory":2,"dx":1,"dy":1,"la1":30.253999710083008,"la2":30.299108505249023,"lo1":-89.0895004272461,"lo2":-89.04439544677734,"nx":28,"ny":28,"refTime":"2022-10-03T21:00:00:Z","depth":"4","parameterNumber":3,"parameterNumberName":"V-component_of_CURRENTS"},"data":[-0.0873,-0.091,-0.0823,-0.0793,-0.0753,-0.0707,-0.0686,-0.0646,-0.0582,-0.053,-0.041,-0.0392,-0.0187,-0.0225,-0.0002,0.0025,0.0163,0.0225,0.0224,0.0491,0.0506,0.052,0.04,0,0,0,0,0,-0.0781,-0.074,-0.0807,-0.0745,-0.0774,-0.0721,-0.0711,-0.0671,-0.0593,-0.0564,-0.0451,-0.0367,-0.0186,-0.0091,0.0003,0.0035,0.0293,0.0139,0.0361,0.05,0.0518,0.0395,0,0,0,0,0,0,-0.0611,-0.0654,-0.0634,-0.0649,-0.0686,-0.0632,-0.0637,-0.057,-0.0524,-0.0393,-0.0417,-0.0236,-0.0138,0.0023,0.0137,0.0259,0.0285,0.0334,0.0359,0.0377,0.0252,0.0107,0.0061,0,0,0,0,0,-0.0374,-0.0391,-0.0418,-0.0427,-0.0463,-0.0486,-0.0479,-0.0488,-0.0355,-0.0327,-0.0245,-0.0134,-0.006,0.014,0.0266,0.0394,0.0631,0.0588,0.0599,0.0597,0.0514,0.0471,0.0463,0.0583,0.0585,0.0587,0.0588,0,-0.0195,-0.019,-0.0185,-0.0218,-0.021,-0.0228,-0.0242,-0.0129,-0.0123,-0.0045,-0.0072,0.001,0.0086,0.024,0.0395,0.0592,0.0573,0.0632,0.0629,0.054,0.0496,0.0483,0.047,0.0601,0.06,0.0599,0.0598,0,-0.0151,-0.005,-0.0042,0.0038,0.0046,0.0012,0.0027,0.004,0.013,0.0107,0.011,0.0236,0.0305,0.0463,0.0616,0.0638,0.0723,0.069,0.0744,0.0706,0.0506,0.0487,0.0624,0.0619,0.0615,0.0611,0.0608,0,-0.0062,-0.0024,0.0049,0.0066,0.008,0.0181,0.0194,0.0245,0.0318,0.0295,0.0425,0.0392,0.0551,0.0606,0.0673,0.0659,0.078,0.0631,0.0599,0.068,0.0662,0.0649,0.0624,0.0854,0.0853,0.0852,0.0852,0,-0.0101,0.0006,0.0077,0.0103,0.0187,0.0224,0.0258,0.0335,0.0335,0.0441,0.0417,0.0564,0.0513,0.0638,0.06,0.0584,0.0722,0.0703,0.0577,0.0561,0.0635,0.0611,0.0851,0.0851,0.085,0.085,0.085,0,-0.0081,-0.0037,0.0052,0.0137,0.0156,0.0186,0.0267,0.0311,0.0393,0.0396,0.0451,0.0423,0.0511,0.0425,0.0551,0.048,0.0489,0.0497,0.05,0.0306,0.0187,0.0311,0.0468,0.0465,0.0462,0.0459,0.0457,0,-0.0122,-0.0048,-0.0013,0.0058,0.0096,0.0115,0.0177,0.0215,0.0229,0.0276,0.0294,0.0292,0.0236,0.02,0.0293,0.0277,0.0369,0.0276,0.0326,0.0328,0.0182,0.0294,0.0316,0.0417,0.0422,0.0426,0.0428,0,-0.018,-0.0114,-0.0114,-0.0084,-0.0042,-0.0039,0.0035,0.0094,0.0129,0.0119,0.0192,0.0186,0.0148,0.0142,0.0101,0.0178,0.0303,0.01,0.0101,0.0162,0.0448,0.0265,0.027,0.0291,0.0296,0.03,0.0401,0,-0.0187,-0.016,-0.0147,-0.0117,-0.0104,-0.0077,-0.0069,-0.0059,-0.0081,-0.0073,-0.0034,-0.0074,-0.0069,-0.0075,-0.0123,-0.0001,-0.0053,-0.0085,-0.0099,-0.001,0.001,0.0032,-0.0266,-0.0268,-0.027,-0.0272,0,0,-0.024,-0.0207,-0.0241,-0.0214,-0.0191,-0.0236,-0.0189,-0.0196,-0.0211,-0.0184,-0.0247,-0.0245,-0.0274,-0.0196,-0.0188,-0.0227,-0.0218,-0.0224,-0.0086,-0.0065,-0.0046,-0.0018,0.0005,-0.0276,-0.0277,-0.0277,-0.0278,0,-0.0245,-0.0263,-0.0245,-0.0243,-0.0249,-0.0252,-0.025,-0.0264,-0.0265,-0.0266,-0.0297,-0.0291,-0.0339,-0.0309,-0.0313,-0.0263,-0.0278,-0.03,-0.0189,-0.0107,-0.0083,-0.0063,-0.0031,-0.0008,-0.0283,-0.0283,-0.0283,0,-0.0272,-0.0275,-0.0275,-0.0277,-0.0289,-0.0264,-0.0313,-0.0319,-0.0291,-0.0367,-0.0345,-0.0385,-0.0418,-0.0399,-0.0399,-0.0417,-0.032,-0.0391,-0.0382,-0.0352,-0.0268,-0.0243,-0.022,-0.0501,-0.0501,-0.0501,0,0,-0.0277,-0.0276,-0.0281,-0.0278,-0.0278,-0.0304,-0.0314,-0.033,-0.0352,-0.0367,-0.0387,-0.0414,-0.0423,-0.0425,-0.0448,-0.0434,-0.0417,-0.0411,-0.0401,-0.0392,-0.0358,-0.0272,-0.0249,-0.0502,-0.0502,-0.0502,0,0,-0.028,-0.0285,-0.0296,-0.0289,-0.0296,-0.0318,-0.0325,-0.0346,-0.0376,-0.0385,-0.0419,-0.0426,-0.0423,-0.0456,-0.0459,-0.0435,-0.0486,-0.0486,-0.0384,-0.0372,-0.0363,-0.0311,-0.0483,0,0,0,0,0,-0.0289,-0.028,-0.0289,-0.0289,-0.0308,-0.031,-0.0316,-0.0346,-0.0369,-0.0372,-0.0403,-0.0421,-0.0462,-0.0465,-0.0471,-0.0423,-0.0508,-0.0507,-0.0506,-0.0374,-0.0361,-0.035,0,0,0,0,0,0,-0.0289,-0.0288,-0.0289,-0.0307,-0.0311,-0.0311,-0.0341,-0.035,-0.0369,-0.0374,-0.0416,-0.0422,-0.0443,-0.0463,-0.0469,-0.0422,-0.0482,-0.0507,-0.0506,-0.0506,-0.037,-0.0359,-0.035,0,0,0,0,0,-0.0289,-0.0288,-0.0306,-0.0308,-0.0312,-0.0346,-0.0342,-0.0349,-0.0373,-0.04,-0.0408,-0.0393,-0.0442,-0.0448,-0.0467,-0.0418,-0.0478,-0.048,-0.0507,-0.0506,-0.0505,-0.0365,0,0,0,0,0,0,-0.0289,-0.0309,-0.0308,-0.0311,-0.031,-0.0347,-0.0352,-0.0349,-0.0399,-0.0406,-0.0377,-0.038,-0.0441,-0.0446,-0.0451,-0.0413,-0.0475,-0.0477,-0.0478,-0.0506,-0.0506,-0.0505,0,0,0,0,0,0,-0.0309,-0.0311,-0.031,-0.031,-0.0314,-0.0348,-0.0353,-0.037,-0.04,-0.0376,-0.0379,-0.0378,-0.0429,-0.0445,-0.0449,-0.0475,-0.0473,-0.0475,-0.0476,-0.0477,-0.0506,-0.0505,0,0,0,0,0,0,-0.0311,-0.0313,-0.031,-0.0313,-0.0317,-0.0359,-0.0365,-0.0383,-0.0399,-0.0373,-0.04,-0.0401,-0.0426,-0.0431,-0.0447,-0.0472,-0.0474,-0.0473,-0.0475,-0.0475,-0.0476,0,0,0,0,0,0,0,-0.0313,-0.0287,-0.0283,-0.0315,-0.0319,-0.0339,-0.0341,-0.0342,-0.0399,-0.04,-0.04,-0.0401,-0.0463,-0.0465,-0.0467,-0.0469,0,0,-0.0473,-0.0474,0,0,0,0,0,0,0,0,-0.0287,-0.0287,-0.0283,-0.0283,-0.0284,-0.0339,-0.0341,-0.0342,-0.0399,-0.04,-0.04,-0.04,-0.0463,-0.0465,-0.0467,0,0,0,0,0,0,0,0,0,0,0,0,0,0,0,-0.0283,-0.0283,0,-0.034,-0.0341,-0.0342,-0.0399,-0.04,-0.04,-0.04,-0.0464,-0.0465,-0.0467,0,0,0,0,0,0,0,0,0,0,0,0,0,0,0,0,0,0,0,0,0,0,0,0,0,0,0,0,0,0,0,0,0,0,0,0,0,0,0,0,0,0,0,0,0,0,0,0,0,0,0,0,0,0,0,0,0,0,0,0,0,0,0,0,0,0,0,0,0]}]]]